Location: Peterborough
(44.3091°N, 78.3197°W)
Time: 15:51:07
(UTC-04:00)

Explorer 7 - Pass Details

Date: 23 March 2023
Orbit: 477 x 653 km, 50.3° (Epoch: 04 June)

Event Time Altitude Azimuth Distance (km) Brightness Sun altitude
Rises 00:46:42 0° 296° (WNW) 2,660 - -44.2°
Reaches altitude 10° 00:49:00 10° 292° (WNW) 1,740 - -44.2°
Maximum altitude 00:52:49 52° 215° (SW) 619 - -44.4°
Drops below altitude 10° 00:56:28 10° 138° (SE) 1,661 - -44.5°
Sets 00:58:37 0° 133° (SE) 2,525 - -44.5°
